Regional Weather Roundup
Issued by NWS

Home | Current Version | Previous Version | Text Only | Print | Product List | Glossary Off
Versions: 1 2 3 4 5 6 7 8 9 10 11 12 13 14 15 16 17 18 19 20 21 22 23 24 25 26 27 28 29 30 31 32 33 34 35 36 37 38 39 40 41 42 43 44 45 46 47 48 49 50

000
ASUS45 KBOU 211010
RWRCO

WEATHER ROUNDUP FOR COLORADO
NATIONAL WEATHER SERVICE DENVER/BOULDER CO
400 AM MDT SAT APR 21 2018

NOTE: "FAIR" INDICATES FEW OR NO CLOUDS BELOW 12000 FEET WITH NO
SIGNIFICANT WEATHER AND/OR OBSTRUCTIONS TO VISIBILITY.

COZ001>005-013-030-031-211100-
...NORTHWEST COLORADO...

CITY           SKY/WX    TMP DP  RH WIND       PRES   REMARKS
CRAIG          CLOUDY    38  33  82 SW3       30.09R
HAYDEN         CLOUDY    33  32  96 CALM      30.11R
MEEKER         CLOUDY    36  33  89 SW3       30.10R
RANGELY        CLOUDY    40  38  95 CALM      30.13R
RABBIT EARS PA CLOUDY    23  21  93 NE8       30.09R WCI  14
STEAMBOAT SPGS CLOUDY    32  32 100 CALM      30.08R
WALDEN         MOCLDY    27  23  86 N12       30.10S WCI  16
$$

COZ006>008-011-211100-
...WEST CENTRAL VALLEYS...

CITY           SKY/WX    TMP DP  RH WIND       PRES   REMARKS
GRAND JUNCTION CLOUDY    42  39  89 N8        30.09R
MONTROSE       LGT RAIN  37  35  92 SE8       30.11R
EAGLE          MIX PCPN  32  31  96 CALM      30.10R FOG
RIFLE          CLOUDY    35  35 100 CALM      30.10R
DELTA          LGT RAIN  39  37  90 CALM      30.10S
NUCLA          RAIN      36  34  93 E3        30.15R
$$

COZ017>023-064>068-211100-
...SOUTHWEST COLORADO...

CITY           SKY/WX    TMP DP  RH WIND       PRES   REMARKS
DURANGO        FAIR      37  28  70 W5        30.04S
CORTEZ         CLOUDY    39  30  70 NE3       30.10R
PAGOSA SPRINGS CLOUDY    31  23  70 CALM      30.07S
TELLURIDE      LGT SNOW  28  28  99 W3        30.10S VSB 1
WOLF CREEK PAS FLURRIES  14  14 100 SW8       30.12S WCI   3
$$

COZ009-010-012-014-032>034-037-058>063-211100-
...CENTRAL COLORADO...

CITY           SKY/WX    TMP DP  RH WIND       PRES   REMARKS
ASPEN          LGT SNOW  31  29  92 CALM      30.06R FOG
BUENA VISTA    FAIR      30  27  91 E3        30.03R
COPPER MTN     NOT AVBL
BERTHOUD PASS  CLOUDY    14   5  67 W7        30.08R WCI   4
COTTONWOOD PAS FAIR      32  27  80 W12G20    30.03R WCI  23
GUNNISON       LGT SNOW  30  28  93 CALM      30.07S FOG
GRANBY         CLOUDY    27  27  99 SE3       30.08R
KREMMLING      CLOUDY    37  32  81 CALM      30.10R
LEADVILLE      LGT SNOW  23  22  96 NE6       30.04S FOG     WCI  16
MONARCH PASS   CLOUDY    19  16  86 W15       30.15S WCI   5
SALIDA         MOCLDY    33  28  83 W3        30.10R
SUNLIGHT       SNOW      23  21  93 MISG      30.14R VSB 1/2
WILKERSON PASS SNOW     N/A N/A N/A E8        30.07R VSB 1/4
$$

COZ069>075-211100-
...SAN LUIS VALLEY/SANGRE DE CRISTO MOUNTAINS...

CITY           SKY/WX    TMP DP  RH WIND       PRES   REMARKS
ALAMOSA        CLOUDY    30  27  88 N3        30.02S
DEL NORTE      FAIR      29  23  77 SW3       30.03F
LA VETA PASS   FLURRIES  23  21  93 SW9G24    30.12R WCI  13
SAGUACHE       NOT AVBL
$$

COZ035-036-038>040-211100-
...NORTHERN COLORADO FRONT RANGE...

CITY           SKY/WX    TMP DP  RH WIND       PRES   REMARKS
DENVER INTL AP LGT SNOW  32  32 100 NE8       30.10R VSB 3/4 WCI  25
AURORA         LGT SNOW  32  32 100 NE5       30.10R FOG     WCI  27
FRONT RANGE AP LGT SNOW  34  33  98 E8        30.10S WCI  27
ERIE MUNI ARPT LGT SNOW  33  33  99 N9        30.18S WCI  25
BOULDER MUN AP CLOUDY    34  34 100 N8        30.13R WCI  27
CENTENNIAL     LGT SNOW  32  32 100 NW10      30.09R FOG     WCI  24
BROOMFIELD     LGT SNOW  32  32 100 N10       30.12R WCI  24
FORT COLLINS   MIX PCPN  33  32  96 N7        30.15R WCI  27
LONGMONT       CLOUDY    36  34  92 N7        30.16R
$$

COZ041-046-047-076>085-087-088-211100-
...PIKES PEAK/PALMER DIVIDE AND SOUTHERN FOOTHILLS...

CITY           SKY/WX    TMP DP  RH WIND       PRES   REMARKS
COLO. SPRINGS  CLOUDY    33  32  96 NE8       30.06R WCI  26
A. F. ACADEMY  LGT SNOW  32  32 100 NW6       30.06R FOG     WCI  27
SCHRIEVER AFB  NOT AVBL
CHEYENNE MTN   SNOWSHWR  30  30 100 N9        30.00R VSB 1/8 WCI  22
ELLICOTT       CLOUDY   N/A N/A N/A E10       30.05R
FALCON         CLOUDY    32  32 100 N6        30.08R WCI  26
FORT CARSON    CLOUDY   N/A N/A N/A CALM      30.06R
LIMON          LGT SNOW  31  31 100 E6        30.08S FOG     WCI  25
MONUMENT HILL  CLOUDY    30  30 100 CALM      30.08S FOG
CANON CITY     CLOUDY    34  34 100 S8        30.06R WCI  27
WALSENBURG     NOT AVBL
TRINIDAD       CLOUDY    34  32  92 S3        30.02R
$$

COZ042>045-048>051-090-091-211100-
...NORTHEAST COLORADO...

CITY           SKY/WX    TMP DP  RH WIND       PRES   REMARKS
GREELEY ARPT   LGT SNOW  33  32  96 NE7       30.15R FOG     WCI  27
AKRON          SNOW      32  32 100 E9        30.12S VSB 1/2 WCI  24
BURLINGTON     LGT RAIN  37  35  92 E9        30.12R
WRAY           LGT RAIN  36  36 100 SE13      30.16S
YUMA           LGT SNOW  32  32 100 E8        30.14S WCI  25
STERLING       NOT AVBL
HOLYOKE        LGT RAIN  37  36  93 SE13      30.18R
FORT MORGAN    LGT SNOW  32  32  99 E8        30.13F WCI  25
$$

COZ086-089-092>099-211100-
...SOUTHEAST COLORADO...

CITY           SKY/WX    TMP DP  RH WIND       PRES   REMARKS
PUEBLO         CLOUDY    42  37  82 N6        30.05R
LA JUNTA       CLOUDY    41  40  96 E9        30.05R
LAMAR          LGT RAIN  41  40  96 E5        30.05S FOG
SPRINGFIELD      N/A     39  39 100 SE7       30.03S
$$



USA.gov is the U.S. government's official web portal to all federal, state and local government web resources and services.